Flag for Canada Weather past 2 weeks in Halifax, Nova Scotia, Canada

Now
59 °F

Passing clouds.


Feels Like: 57 °F
Forecast: 59 / 77 °F
Wind: 10 mph from West

Location: Halifax International Airport

Current Time: Jul 4, 2015 at 5:48:14 AM

Latest Report: Jul 4, 2015 at 5:00 AM


Visibility: 15 mi

Pressure: 29.96 "Hg

Humidity: 63%

Dew point: 46 °F

Location of HalifaxLocation

Historic Weather in Halifax — Graph

°F

Halifax temperature yesterday

Maximum temperature yesterday: 75 °F (at 3:00 PM)
Minimum temperature yesterday: 57 °F (at 1:00 AM)
Average temperature yesterday: 64 °F

Past Weeks' High & Low Weather Summary

 TemperatureHumidityPressure
High77 °F (Jul 2, 4:00 PM)100% (Jun 19, 1:00 PM)30.23 "Hg (Jun 19, 1:00 PM)
Low43 °F (Jun 27, 5:00 AM)31% (Jun 25, 1:00 PM)29.48 "Hg (Jun 22, 5:00 AM)
Average59 °F80%29.93 "Hg
* Reported Jun 19 4:00 AM — Jul 4 4:00 AM, Halifax, Weather by CustomWeather, © 2015

Note: Actual official high and low records may vary slightly from our data, if they occured in-between our weather recording intervals... More about our weather records

Advertising

Halifax weather history for previous 24 hours

 ConditionsComfort  
Time TempWeatherWind HumidityBarometerVisibility
4:00 AM
Sat, Jul 4
55 °FClear.7 mph72%29.95 "Hg15 mi
3:00 AM57 °FClear.9 mph72%29.94 "Hg15 mi
2:00 AM57 °FClear.7 mph72%29.93 "Hg15 mi
1:00 AM61 °FClear.10 mph63%29.93 "Hg15 mi
12:00 AM63 °FClear.9 mph56%29.92 "Hg15 mi
11:00 PM
Fri, Jul 3
64 °FClear.10 mph52%29.91 "Hg15 mi
10:00 PM64 °FPassing clouds.9 mph52%29.90 "Hg15 mi
9:00 PM68 °FPassing clouds.7 mph46%29.87 "Hg15 mi
8:00 PM72 °FPassing clouds.13 mph36%29.85 "Hg15 mi
7:00 PM72 °FPassing clouds.13 mph61%29.82 "Hg15 mi
6:00 PM73 °FPassing clouds.15 mph61%29.82 "Hg15 mi
5:00 PM75 °FScattered clouds.16 mph47%29.80 "Hg15 mi
4:00 PM75 °FScattered clouds.13 mph34%29.80 "Hg15 mi
3:00 PM75 °FPassing clouds.12 mph39%29.81 "Hg15 mi
2:00 PM73 °FPassing clouds.10 mph44%29.81 "Hg15 mi
1:00 PM72 °FPassing clouds.7 mph50%29.81 "Hg15 mi
12:00 PM66 °FScattered clouds.5 mph73%29.83 "Hg15 mi
11:00 AM64 °FBroken clouds.7 mph73%29.84 "Hg15 mi
10:00 AM61 °FCloudy.6 mph88%29.85 "Hg15 mi
9:00 AM59 °FLight rain. Cloudy.7 mph94%29.87 "Hg15 mi
8:00 AM59 °FLight rain. Mostly cloudy.9 mph94%29.87 "Hg15 mi
7:00 AM59 °FLight rain. Overcast.8 mph88%29.87 "Hg15 mi
6:00 AM57 °FLight rain. Overcast.7 mph94%29.86 "Hg15 mi
5:50 AM57 °FLight rain. Overcast.5 mph94%29.86 "Hg15 mi
5:00 AM57 °FMostly cloudy.5 mph94%29.86 "Hg15 mi
Weather by CustomWeather, © 2015

See weather overviewHow to use our weather pages